Starlink 11077

operational
NORAD ID: 58707 Int'l Des: 2024-002 Owner: SPXS Country: US Constellation: starlink
LEOCIRCULAR

About Starlink 11077

Description loading...

Live Position

Loading 3D Globe...

Upcoming Passes

Altitude History

Altitude vs Time

uPlot chart will show altitude changes over time

Two-Line Element Set

1 58707U 24002C 25339.31765430 -.00001399 00000-0 -66914-5 0 9991
2 58707 53.1579 19.3391 0001272 97.8577 262.2585 15.69703637111617
Epoch: Dec 5, 2025 • Age: 13 hours

Current Status

Altitude 367.3 km
Velocity 7.69 km/s
Sub-Earth Point -24.95°S, 169.16°W
Launch Date Jan 3, 2024
Age 1.9 years
Type internet

Technical Details

Classification Payload
Mass 960.00 kg
Dry Mass 910.00 kg
Total Mass 960.00 kg
Length 0.30 m
Diameter 4.10 m
Span 29.00 m
Shape Box + pan
Manufacturer SPXS
Bus Type Starlink V2MD
Phase Status In Orbit
Owner/State SPXS/US

Large Constellations

Loading constellations...